This demonstration page uses our WeatherBlox Daily Observations layout. Learn more.

Left ArrowRight Arrow

36.17497, -115.13722

Hourly Observations for August 10, 2020

Temp ( °F °C ) Dew Point ( °F °C ) Humidity (%) Winds ( mph kmh ) Pressure ( in mb ) Visibility ( mi km ) Precip ( " mm )
12:53 am 00:53 Clear 86 30 31 -0.6 14 14 W 5 7 29.83 1010 10 16 N/A
1:53 am 01:53 Clear 82 27.8 33 0.6 17 17 N N/A 29.83 1010 10 16 N/A
2:53 am 02:53 Clear 82 27.8 31 -0.6 16 16 WNW 5 7 29.83 1010 10 16 N/A
3:53 am 03:53 Clear 79 26.1 32 undefined 18 18 NW 5 7 29.84 1011 10 16 N/A
4:53 am 04:53 Clear 77 25 32 undefined 19 19 NW 7 11 29.85 1011 10 16 N/A
5:53 am 05:53 Clear 77 25 31 -0.6 18 18 WNW 6 9 29.86 1011 10 16 N/A
6:53 am 06:53 Sunny 79 26.1 33 0.6 19 19 NW 5 7 29.89 1012 10 16 N/A
7:53 am 07:53 Sunny 83 28.3 33 0.6 17 17 NNW 3 6 29.91 1013 10 16 N/A
8:53 am 08:53 Sunny 92 33.3 25 -3.9 9 9 E 7 11 29.91 1013 10 16 N/A
9:53 am 09:53 Sunny 95 35 23 -5 7 7 E 6 9 29.91 1013 10 16 N/A
10:53 am 10:53 Sunny 97 36.1 22 -5.6 7 7 SE 6 9 29.91 1013 10 16 N/A
11:53 am 11:53 Sunny 100 37.8 23 -5 6 6 S 6 9 29.90 1013 10 16 N/A
12:53 pm 12:53 Sunny 101 38.3 25 -3.9 7 7 VRB 3 6 29.87 1012 10 16 N/A
1:53 pm 13:53 Sunny 103 39.4 25 -3.9 6 6 NE 7 11 29.85 1011 10 16 N/A
2:53 pm 14:53 Sunny 103 39.4 25 -3.9 6 6 N N/A 29.82 1010 10 16 N/A
3:53 pm 15:53 Sunny 105 40.6 24 -4.4 6 6 SSW 8 13 29.80 1009 10 16 N/A
4:53 pm 16:53 Sunny 105 40.6 23 -5 5 5 ESE 5 7 29.78 1009 10 16 N/A
5:53 pm 17:53 Sunny 105 40.6 23 -5 5 5 ENE 6 9 29.76 1008 10 16 N/A
6:53 pm 18:53 Sunny 104 40 19 -7.2 5 5 SW 10 17 29.75 1008 10 16 N/A
7:53 pm 19:53 Clear 101 38.3 18 -7.8 5 5 SSW 9 15 29.76 1008 10 16 N/A
8:53 pm 20:53 Clear 98 36.7 22 -5.6 6 6 SSW 5 7 29.78 1008 10 16 N/A
9:53 pm 21:53 Clear 95 35 26 -3.3 8 8 SW 5 7 29.79 1009 10 16 N/A
10:53 pm 22:53 Clear 92 33.3 26 -3.3 9 9 SSW 6 9 29.79 1009 10 16 N/A
11:53 pm 23:53 Clear 94 34.4 24 -4.4 8 8 SSW 15 24 29.79 1009 10 16 N/A

Powered by AerisWeather